Location: LDNL
(36.4545°S, 141.6685°E)
Time: 00:00:21
(UTC+10:00)

Courier 1B Rocket - Visible Passes

Search period start: 11 August 2022 00:00
Search period end: 21 August 2022 00:00
Orbit: 920 x 1202 km, 28.2° (Epoch: 10 August)

Date Brightness Start Highest point End Pass type
(mag) Time Alt. Az. Time Alt. Az. Time Alt. Az.
11 Aug 6.8 04:16:32 27° NNE 04:16:32 27° NNE 04:22:28 10° ENE visible
11 Aug 6.2 06:02:54 13° WNW 06:09:27 43° N 06:16:19 10° ENE visible
12 Aug 7.6 03:19:21 14° ENE 03:19:21 14° ENE 03:20:45 10° ENE visible
12 Aug 6.3 05:05:43 31° NNW 05:08:18 39° NNE 05:15:12 10° ENE visible
13 Aug 6.6 04:08:28 32° NE 04:08:28 32° NE 04:13:55 10° ENE visible
13 Aug 6.1 05:54:50 18° WNW 06:00:25 46° N 06:07:29 10° ENE visible
14 Aug 7.7 03:11:11 14° ENE 03:11:11 14° ENE 03:12:25 10° ENE visible
14 Aug 6.0 04:57:33 39° NNW 04:59:14 44° N 05:06:24 10° ENE visible
14 Aug 6.2 06:45:17 10° WNW 06:52:33 43° N 06:59:27 10° ENE visible
15 Aug 6.6 04:00:14 33° NE 04:00:14 33° NE 04:05:10 10° ENE visible
15 Aug 6.0 05:46:36 22° WNW 05:51:23 46° N 05:58:33 10° ENE visible
16 Aug 7.7 03:02:54 13° ENE 03:02:54 13° ENE 03:03:47 10° ENE visible
16 Aug 5.9 04:49:15 45° NNW 04:50:11 46° N 04:57:29 10° ENE visible
16 Aug 6.3 06:36:20 10° WNW 06:43:29 39° NNW 06:50:21 10° NE visible
17 Aug 6.7 03:51:55 32° NE 03:51:55 32° NE 03:56:18 10° ENE visible
17 Aug 6.0 05:38:16 25° WNW 05:42:20 44° N 05:49:30 10° ENE visible
18 Aug 7.8 02:54:33 12° ENE 02:54:33 12° ENE 02:55:00 10° ENE visible
18 Aug 5.8 04:40:55 46° N 04:41:08 46° N 04:48:30 10° ENE visible
18 Aug 6.4 06:27:30 10° WNW 06:34:23 34° NNW 06:41:03 10° NE visible
19 Aug 6.8 03:43:35 29° ENE 03:43:35 29° ENE 03:47:21 10° ENE visible
19 Aug 6.1 05:29:56 28° WNW 05:33:15 40° NNW 05:40:20 10° NE visible
20 Aug 6.0 04:32:36 43° N 04:32:36 43° N 04:39:24 10° ENE visible
20 Aug 6.6 06:18:58 10° WNW 06:25:13 28° NNW 06:31:29 10° NNE visible
